181  
ASUS46 KOTX 050325  
RWROTX  
 
EASTERN WASHINGTON/NORTHERN IDAHO ROUNDUP  
NATIONAL WEATHER SERVICE, SPOKANE WA  
700 PM PST MON MAR 04 2024  
 
NOTE: "FAIR" INDICATED FEW OR NO CLOUDS BELOW 12,000 FEET WITH NO  
SIGNIFICANT WEATHER AND/OR S TO VISIBILITY
.  
   
..NORTHEAST WASHINGTON AND NORTHERN IDAHO PANHANDLE
 
 
 
CITY SKY/WX TMP DP RH WIND PRES REMARKS
 
SPOKANE INTL MOCLDY 31 22 69 SW9 29.83S WCI 23  
SPOKANE DOWNTO PTCLDY 31 29 92 CALM 29.86S  
COEUR D ALENE CLOUDY 28 28 100 S5 29.86S WCI 23  
DEER PARK MOCLDY 28 25 88 SE3 29.84R  
SANDPOINT CLOUDY 32 30 93 SW3 29.83S  
BONNERS FERRY CLOUDY 30 27 86 CALM 29.80S  
   
..SOUTHEAST WASHINGTON AND SOUTHERN IDAHO PANHANDLE
 
 
 
CITY SKY/WX TMP DP RH WIND PRES REMARKS
 
WALLA WALLA MOCLDY 34 24 67 E6 29.89S WCI 29  
PULLMAN/MOSCOW PTCLDY 31 19 61 SW6 29.89R WCI 25  
LEWISTON PTCLDY 38 21 50 S5 29.91R  
LOWELL N/A 36 31 82 CALM 29.96R  
GRANGEVILLE PTCLDY 25 16 68 S5 29.87S WCI 19  
   
..COLUMBIA BASIN
 
 
 
CITY SKY/WX TMP DP RH WIND PRES REMARKS
 
EPHRATA PTCLDY 31 14 49 CALM 29.85R  
MOSES LAKE PTCLDY 39 14 36 W8 29.87R  
PASCO MOCLDY 41 21 44 S7 29.90S  
RICHLAND MOCLDY 39 23 51 S7 29.91R  
HERMISTON MOCLDY 38 23 55 S7 29.91R  
PENDLETON MOCLDY 37 20 50 E7 29.88S  
   
..EAST SLOPES CASCADES
 
 
 
CITY SKY/WX TMP DP RH WIND PRES REMARKS
 
THE DALLES CLOUDY 40 34 79 NW8 29.91S  
YAKIMA MOCLDY 41 22 46 S9 29.86S  
ELLENSBURG MOCLDY 34 20 56 NW8 29.84R WCI 27  
STAMPEDE PASS CLOUDY 23 19 85 CALM 29.77F  
WENATCHEE PTCLDY 37 15 40 NW7 29.86R  
WINTHROP CLEAR 31 20 64 CALM 29.85R  
OMAK CLOUDY 33 29 85 N9 29.88R WCI 25  
CHELAN N/A 36 16 44 MISG N/A  
SUNNYSIDE CLOUDY 40 23 51 CALM 29.89R  
   
..SOUTHERN BRITISH COLUMBIA
 
 
 
CITY SKY/WX TMP DP RH WIND PRES REMARKS
 
PENTICTON MOCLDY 34 19 55 NE10 29.91R WCI 26  
CRANBROOK PTCLDY 27 21 80 S14 29.70R WCI 15  
OSOYOOS N/A 34 28 80 S6 N/A WCI 29  
CRESTON N/A 30 28 93 SE2 N/A  
   
..WESTERN MONTANA
 
 
 
CITY SKY/WX TMP DP RH WIND PRES REMARKS
 
KALISPELL CLOUDY 31 19 61 SW7 29.78R WCI 24  
LIBBY N/A N/A N/A N/A SW6 29.78S  
MISSOULA MOCLDY 30 21 69 S8 29.85R WCI 22  
   
..NEIGHBORING CITIES
 
 
 
CITY SKY/WX TMP DP RH WIND PRES REMARKS
 
SEATTLE LGT SNOW 35 31 85 N3 29.93R  
PORTLAND CLOUDY 41 34 76 S6 29.93R  
BOISE CLOUDY 35 23 61 E13 29.96S WCI 26  
GREAT FALLS MOCLDY 7 3 84 E7 29.79R WCI -5  
CALGARY MOCLDY -2 -9 71 SW8 29.83R WCI -17  
 
CLICK HERE TO GO TO PREVIOUS BULLETINS.

The Nexlab WA Page
The Nexlab ID Page Main Text Page